Retour au catalogue

DEMETER

ActifScienceSSO
NORAD 28368·PAYLOAD·🇫🇷 France

Lancé Jun 29, 2004 depuis Baikonur Cosmodrome

Loading…

Prochains Passages (prochaines 24 heures)

TLE

FraisSource: Space-Track

Époque: Sep 14, 2026, 05:44 UTC

1 28368U 04025C   26257.23918586  .00001036  00000-0  13135-3 0  9998
2 28368  98.1376 238.7721 0001368 117.5420 242.5933 14.83965159193889

Suivez DEMETER en temps réel avec AllMySat

Download on the App Store